[[{"header":{"parameterUnit":"m.s-1","parameterCategory":1,"la1":30.2991,"la2":30.254,"lo1":-89.0895,"lo2":-89.0444,"dy":0.0017,"dx":0.0017,"nx":28,"ny":28,"refTime":"2025-01-03T09:00:00:Z","depth":0,"parameterNumber":2,"parameterNumberName":"U-component_of_WINDS"},"data":[0,0,0,0,0,0,0,0,0,0,0,0,0,0,0,0,0,0,0,0,0,0,0,0,0,0,0,0,0,0,0,0,0,0,0,0,0,0,0,0,0,0,0,0,0,0,0,0,0,0,0,0,0,0,0,0,0,0,-3.4069,-3.407,0,-3.4155,-3.4156,-3.4157,-3.4056,-3.4053,-3.4049,-3.4045,-3.4136,-3.4142,-3.4148,0,0,0,0,0,0,0,0,0,0,0,0,0,-3.3819,-3.3824,-3.4069,-3.407,-3.4071,-3.4155,-3.4156,-3.4158,-3.4057,-3.4052,-3.4048,-3.4043,-3.4134,-3.4141,-3.4148,0,0,0,0,0,0,0,0,0,0,0,0,0,-3.3919,-3.3825,-3.4069,-3.4031,-3.4029,-3.4155,-3.4157,-3.4158,-3.4058,-3.4052,-3.4047,-3.4041,-3.4132,-3.414,-3.4149,-3.4318,0,0,-3.4176,-3.418,0,0,0,0,0,0,0,0,-3.3913,-3.3928,-3.4036,-3.4034,-3.4031,-3.4089,-3.4101,-3.4212,-3.4059,-3.4047,-3.4045,-3.4039,-3.4125,-3.4134,-3.4163,-3.4322,-3.4326,-3.4177,-3.4182,-3.4186,-3.4189,0,0,0,0,0,0,0,-3.3906,-3.3924,-3.4103,-3.4037,-3.4035,-3.401,-3.4018,-3.4122,-3.4117,-3.4048,-3.404,-3.4052,-3.4123,-3.4155,-3.4164,-3.4327,-3.4177,-3.4185,-3.419,-3.4194,-3.4628,-3.4634,0,0,0,0,0,0,-3.3903,-3.3918,-3.41,-3.4106,-3.3957,-3.4019,-3.4028,-3.4076,-3.4115,-3.4116,-3.4057,-3.4047,-3.4142,-3.4154,-3.4167,-3.4367,-3.4186,-3.4195,-3.42,-3.4622,-3.4629,-3.4636,0,0,0,0,0,0,-3.3898,-3.3921,-3.4097,-3.401,-3.4031,-3.403,-3.4085,-3.4081,-3.4113,-3.4122,-3.4121,-3.409,-3.4138,-3.4155,-3.4281,-3.4369,-3.4199,-3.4207,-3.4615,-3.4624,-3.4633,-3.4768,0,0,0,0,0,0,-3.3892,-3.3919,-3.3983,-3.4012,-3.4036,-3.4209,-3.409,-3.4087,-3.4128,-3.4116,-3.4153,-3.4154,-3.4135,-3.4268,-3.429,-3.4378,-3.4214,-3.4607,-3.4619,-3.463,-3.4756,-3.4781,-3.4802,0,0,0,0,0,-3.3883,-3.4018,-3.3987,-3.4009,-3.4116,-3.4214,-3.4228,-3.4203,-3.4136,-3.42,-3.4206,-3.4153,-3.4355,-3.4282,-3.4305,-3.4397,-3.4601,-3.4615,-3.4629,-3.4745,-3.4776,-3.4802,0,0,0,0,0,0,-3.4001,-3.4022,-3.3987,-3.4136,-3.4174,-3.4197,-3.4278,-3.4236,-3.4295,-3.4281,-3.4248,-3.4257,-3.4392,-3.4407,-3.4324,-3.4562,-3.4467,-3.4486,-3.4548,-3.4577,-3.46,-3.4593,-3.4221,0,0,0,0,0,-3.4044,-3.4122,-3.4136,-3.4266,-3.4287,-3.4279,-3.4321,-3.4299,-3.4337,-3.4353,-3.4368,-3.4408,-3.4481,-3.4529,-3.4597,-3.4757,-3.4764,-3.4832,-3.4855,-3.4874,-3.4892,-3.4977,-3.5008,-3.4682,-3.4682,-3.4681,0,0,-3.4134,-3.4155,-3.4206,-3.429,-3.4317,-3.4399,-3.4294,-3.4385,-3.4446,-3.4367,-3.4487,-3.45,-3.4542,-3.4686,-3.475,-3.4703,-3.4983,-3.4892,-3.4907,-3.4914,-3.4995,-3.5026,-3.5053,-3.4691,-3.469,-3.4688,0,0,-3.434,-3.4364,-3.4474,-3.4503,-3.4545,-3.4539,-3.4566,-3.4595,-3.46,-3.472,-3.4662,-3.4734,-3.486,-3.4892,-3.4926,-3.5143,-3.5097,-3.5166,-3.5288,-3.5372,-3.5398,-3.542,-3.5498,-3.5527,-3.5183,-3.5183,-3.5184,0,-3.4447,-3.4568,-3.4537,-3.4632,-3.4671,-3.4602,-3.4714,-3.4744,-3.4806,-3.4835,-3.4781,-3.4936,-3.496,-3.5111,-3.5164,-3.5193,-3.5222,-3.5162,-3.5396,-3.5419,-3.5439,-3.5513,-3.5543,-3.5192,-3.5191,-3.519,-3.5189,0,-3.4697,-3.4782,-3.4867,-3.4927,-3.4975,-3.5079,-3.5064,-3.5116,-3.5089,-3.5089,-3.5211,-3.5237,-3.5308,-3.5342,-3.5317,-3.5489,-3.5459,-3.5401,-3.5305,-3.5479,-3.5548,-3.5576,-3.5203,-3.52,-3.5198,-3.5196,0,0,-3.4981,-3.5023,-3.5055,-3.5081,-3.5122,-3.5187,-3.5287,-3.5356,-3.5401,-3.5446,-3.553,-3.5637,-3.5584,-3.5621,-3.5599,-3.5673,-3.5844,-3.5606,-3.5606,-3.565,-3.6035,-3.6079,-3.6112,-3.5812,-3.5818,-3.5822,-3.6032,0,-3.5188,-3.5361,-3.5336,-3.5503,-3.5581,-3.5516,-3.5603,-3.5638,-3.5641,-3.5707,-3.5709,-3.5786,-3.571,-3.5732,-3.5802,-3.5808,-3.5921,-3.5793,-3.589,-3.5894,-3.5882,-3.6148,-3.6194,-3.6391,-3.6059,-3.6063,-3.6066,0,-3.5453,-3.5507,-3.5682,-3.5709,-3.5741,-3.582,-3.5881,-3.5945,-3.5983,-3.5979,-3.6021,-3.5985,-3.6085,-3.5987,-3.6125,-3.6038,-3.6076,-3.6085,-3.6092,-3.6101,-3.5991,-3.6165,-3.6454,-3.6483,-3.6108,-3.6105,-3.6102,0,-3.5643,-3.5759,-3.5878,-3.5903,-3.5939,-3.5996,-3.6013,-3.6045,-3.6088,-3.6141,-3.6169,-3.6233,-3.6269,-3.632,-3.6302,-3.6232,-3.6444,-3.6344,-3.6444,-3.6445,-3.6493,-3.649,-3.6792,-3.6517,-3.6516,-3.6516,-3.6515,0,-3.5878,-3.5987,-3.5964,-3.6038,-3.6158,-3.6128,-3.6248,-3.6258,-3.6287,-3.6362,-3.631,-3.6381,-3.6353,-3.6423,-3.6409,-3.6526,-3.6542,-3.6542,-3.6538,-3.6548,-3.6548,-3.6573,-3.6559,-3.6524,-3.6522,-3.652,-3.6519,0,-3.6111,-3.61,-3.6226,-3.6248,-3.6257,-3.6345,-3.6364,-3.6433,-3.6431,-3.6526,-3.6546,-3.6543,-3.6622,-3.6609,-3.6697,-3.6688,-3.6834,-3.6812,-3.6821,-3.6816,-3.6917,-3.6908,-3.7247,-3.729,-3.6986,-3.6989,-3.6992,0,-3.6261,-3.6344,-3.6375,-3.6421,-3.6442,-3.6517,-3.656,-3.6533,-3.658,-3.6629,-3.6693,-3.6767,-3.6824,-3.6954,-3.6959,-3.7026,-3.7006,-3.712,-3.7016,-3.7023,-3.7008,-3.7004,-3.7012,-3.7141,-3.7145,-3.7147,-3.715,0,-3.653,-3.652,-3.6584,-3.6646,-3.6699,-3.6746,-3.6789,-3.683,-3.6807,-3.6862,-3.6942,-3.6987,-3.7076,-3.715,-3.7212,-3.723,-3.7187,-3.7182,-3.7209,-3.722,-3.7222,-3.7223,-3.6878,-3.7175,-3.7172,-3.7171,-3.7169,-3.7168,-3.6726,-3.6797,-3.6829,-3.6902,-3.6931,-3.6972,-3.7038,-3.7043,-3.7109,-3.7179,-3.7159,-3.725,-3.7285,-3.7364,-3.7389,-3.7459,-3.7417,-3.7456,-3.7466,-3.7476,-3.7488,-3.721,-3.747,-3.747,-3.7469,-3.7468,-3.7468,0,-3.6992,-3.701,-3.7077,-3.7138,-3.7195,-3.7148,-3.7193,-3.7244,-3.7324,-3.736,-3.7418,-3.7509,-3.7581,-3.7592,-3.7659,-3.7714,-3.7696,-3.7733,-3.7729,-3.7734,-3.7522,-3.7492,-3.7746,-3.7746,-3.7746,-3.7746,-3.7746,-3.7746,-3.7137,-3.7254,-3.7248,-3.7378,-3.7394,-3.7482,-3.7512,-3.7549,-3.7578,-3.7682,-3.7741,-3.7747,-3.7773,-3.7842,-3.7906,-3.7907,-3.7935,-3.798,-3.7974,-3.7776,-3.7749,-3.7722,-3.7694,-3.7986,-3.7987,-3.818,-3.8181,-3.8183]},{"header":{"parameterUnit":"m.s-1","parameterCategory":1,"la1":30.2991,"la2":30.254,"lo1":-89.0895,"lo2":-89.0444,"dy":0.0017,"dx":0.0017,"nx":28,"ny":28,"refTime":"2025-01-03T09:00:00:Z","depth":0,"parameterNumber":3,"parameterNumberName":"V-component_of_WINDS"},"data":[0,0,0,0,0,0,0,0,0,0,0,0,0,0,0,0,0,0,0,0,0,0,0,0,0,0,0,0,0,0,0,0,0,0,0,0,0,0,0,0,0,0,0,0,0,0,0,0,0,0,0,0,0,0,0,0,0,0,-2.4372,-2.4372,0,-2.4398,-2.4398,-2.4398,-2.4356,-2.4354,-2.4353,-2.4351,-2.4377,-2.4379,-2.4381,0,0,0,0,0,0,0,0,0,0,0,0,0,-2.4283,-2.4285,-2.4372,-2.4372,-2.4372,-2.4398,-2.4398,-2.4398,-2.4356,-2.4354,-2.4352,-2.4351,-2.4376,-2.4378,-2.4381,0,0,0,0,0,0,0,0,0,0,0,0,0,-2.4316,-2.4285,-2.4371,-2.4354,-2.4353,-2.4397,-2.4398,-2.4398,-2.4356,-2.4354,-2.4352,-2.435,-2.4375,-2.4378,-2.4381,-2.4444,0,0,-2.4391,-2.4392,0,0,0,0,0,0,0,0,-2.4315,-2.432,-2.4356,-2.4355,-2.4354,-2.4371,-2.4376,-2.4414,-2.4357,-2.4355,-2.4351,-2.4349,-2.4377,-2.4379,-2.4389,-2.4445,-2.4446,-2.4391,-2.4393,-2.4394,-2.4395,0,0,0,0,0,0,0,-2.4312,-2.4318,-2.4382,-2.4357,-2.4355,-2.4344,-2.4347,-2.4383,-2.4378,-2.4355,-2.4352,-2.4356,-2.4375,-2.4386,-2.4389,-2.4446,-2.4391,-2.4393,-2.4395,-2.4397,-2.4553,-2.4555,0,0,0,0,0,0,-2.4312,-2.4317,-2.4381,-2.4383,-2.4329,-2.4348,-2.435,-2.4368,-2.4377,-2.4376,-2.4357,-2.4353,-2.4382,-2.4386,-2.439,-2.4463,-2.4394,-2.4397,-2.4399,-2.4551,-2.4554,-2.4556,0,0,0,0,0,0,-2.4311,-2.4318,-2.438,-2.4349,-2.4356,-2.4351,-2.4372,-2.4369,-2.438,-2.4379,-2.4378,-2.4369,-2.438,-2.4386,-2.443,-2.4463,-2.4398,-2.4401,-2.4548,-2.4552,-2.4555,-2.4609,0,0,0,0,0,0,-2.4308,-2.4318,-2.4342,-2.435,-2.4358,-2.4421,-2.4374,-2.4372,-2.4386,-2.4381,-2.439,-2.4389,-2.4379,-2.4426,-2.4433,-2.4466,-2.4403,-2.4545,-2.455,-2.4554,-2.4605,-2.4614,-2.4623,0,0,0,0,0,-2.4305,-2.4357,-2.4344,-2.4352,-2.4388,-2.4423,-2.4427,-2.4415,-2.4388,-2.4412,-2.4411,-2.4389,-2.4458,-2.4431,-2.4439,-2.4473,-2.4543,-2.4548,-2.4554,-2.4601,-2.4612,-2.4622,0,0,0,0,0,0,-2.4353,-2.4357,-2.4343,-2.4399,-2.4411,-2.4415,-2.4445,-2.4428,-2.4447,-2.4442,-2.4425,-2.4427,-2.4475,-2.4479,-2.4448,-2.4533,-2.4496,-2.4503,-2.4529,-2.454,-2.4549,-2.4547,-2.4406,0,0,0,0,0,-2.4371,-2.4399,-2.4401,-2.445,-2.4456,-2.445,-2.4465,-2.4454,-2.4465,-2.447,-2.4472,-2.4484,-2.4508,-2.4525,-2.4547,-2.4605,-2.4606,-2.4632,-2.4641,-2.4648,-2.4655,-2.4684,-2.4696,-2.4573,-2.4573,-2.4573,0,0,-2.4406,-2.4412,-2.4431,-2.4459,-2.4467,-2.4496,-2.4454,-2.4487,-2.4508,-2.4475,-2.4517,-2.4519,-2.4531,-2.4582,-2.4605,-2.4587,-2.4688,-2.4655,-2.4661,-2.4663,-2.4691,-2.4702,-2.4713,-2.4577,-2.4576,-2.4576,0,0,-2.4486,-2.4493,-2.4534,-2.4543,-2.4556,-2.4551,-2.4561,-2.4568,-2.4568,-2.461,-2.4585,-2.461,-2.4652,-2.4661,-2.4671,-2.4753,-2.4733,-2.4761,-2.4807,-2.4837,-2.4846,-2.4855,-2.4883,-2.4893,-2.4767,-2.4767,-2.4767,0,-2.4528,-2.4571,-2.4557,-2.4592,-2.4604,-2.4576,-2.4616,-2.4625,-2.4644,-2.4653,-2.4633,-2.4684,-2.469,-2.4743,-2.4763,-2.4772,-2.4782,-2.476,-2.4846,-2.4854,-2.4862,-2.4889,-2.4899,-2.477,-2.477,-2.477,-2.4769,0,-2.4622,-2.4653,-2.4684,-2.4703,-2.472,-2.4757,-2.4748,-2.4766,-2.4753,-2.4751,-2.4793,-2.4799,-2.4822,-2.4833,-2.4822,-2.4884,-2.4872,-2.4849,-2.4811,-2.4877,-2.4902,-2.4912,-2.4775,-2.4774,-2.4773,-2.4772,0,0,-2.4734,-2.4744,-2.4756,-2.4763,-2.4775,-2.4797,-2.4833,-2.4855,-2.487,-2.4884,-2.4913,-2.4949,-2.4927,-2.4939,-2.4928,-2.4953,-2.5016,-2.4927,-2.4927,-2.4943,-2.5084,-2.51,-2.5113,-2.5003,-2.5005,-2.5006,-2.5082,0,-2.4812,-2.4874,-2.4861,-2.4921,-2.4948,-2.4921,-2.4951,-2.4961,-2.4959,-2.4981,-2.4979,-2.5004,-2.4974,-2.4981,-2.5005,-2.5004,-2.5044,-2.4998,-2.5029,-2.503,-2.5026,-2.5126,-2.5144,-2.5215,-2.5092,-2.5094,-2.5095,0,-2.4912,-2.4929,-2.4992,-2.4998,-2.5008,-2.5036,-2.5055,-2.5077,-2.5087,-2.5083,-2.5096,-2.508,-2.5114,-2.5076,-2.5122,-2.5091,-2.5103,-2.5104,-2.5106,-2.5108,-2.5066,-2.513,-2.5238,-2.5248,-2.511,-2.5109,-2.5108,0,-2.4985,-2.5025,-2.5067,-2.5074,-2.5082,-2.5102,-2.5107,-2.5114,-2.5128,-2.5144,-2.5152,-2.5172,-2.5183,-2.5199,-2.5188,-2.5162,-2.5235,-2.5197,-2.5233,-2.5233,-2.5249,-2.5248,-2.536,-2.5258,-2.5258,-2.5258,-2.5258,0,-2.5074,-2.5113,-2.51,-2.5126,-2.5168,-2.5153,-2.5196,-2.5196,-2.5203,-2.5228,-2.5206,-2.5229,-2.5214,-2.5236,-2.5228,-2.5267,-2.5272,-2.527,-2.5267,-2.5271,-2.5272,-2.5278,-2.5273,-2.5261,-2.526,-2.5259,-2.5259,0,-2.5163,-2.5156,-2.52,-2.5204,-2.5205,-2.5237,-2.5239,-2.5263,-2.5259,-2.5291,-2.5297,-2.5291,-2.5316,-2.5307,-2.5333,-2.5327,-2.5377,-2.5368,-2.5374,-2.5371,-2.5407,-2.5403,-2.5527,-2.5542,-2.5431,-2.5432,-2.5433,0,-2.522,-2.5249,-2.5256,-2.5271,-2.5277,-2.5302,-2.5315,-2.5301,-2.5316,-2.5329,-2.5351,-2.5374,-2.5391,-2.5432,-2.543,-2.545,-2.544,-2.5482,-2.5443,-2.5446,-2.544,-2.5438,-2.544,-2.549,-2.5491,-2.5492,-2.5493,0,-2.5321,-2.5316,-2.5336,-2.5356,-2.5373,-2.5387,-2.54,-2.5413,-2.54,-2.5417,-2.5443,-2.5456,-2.5483,-2.5506,-2.5523,-2.5526,-2.5508,-2.5505,-2.5515,-2.5519,-2.5521,-2.5519,-2.5394,-2.5503,-2.5502,-2.5501,-2.55,-2.55,-2.5395,-2.5419,-2.5428,-2.5451,-2.5459,-2.5471,-2.5493,-2.5491,-2.5512,-2.5533,-2.5523,-2.5552,-2.556,-2.5581,-2.5587,-2.5609,-2.5593,-2.5606,-2.561,-2.5613,-2.5617,-2.5518,-2.5612,-2.5612,-2.5612,-2.5612,-2.5611,0,-2.5494,-2.5498,-2.552,-2.5537,-2.5556,-2.5536,-2.5549,-2.5565,-2.5591,-2.56,-2.5617,-2.5646,-2.5667,-2.5666,-2.5686,-2.5703,-2.5695,-2.5709,-2.5707,-2.5708,-2.5631,-2.5621,-2.5715,-2.5715,-2.5715,-2.5715,-2.5715,-2.5715,-2.5548,-2.5588,-2.5583,-2.5626,-2.5629,-2.5657,-2.5666,-2.5676,-2.5683,-2.5716,-2.5734,-2.5733,-2.5737,-2.5757,-2.5776,-2.5775,-2.5783,-2.58,-2.5795,-2.5724,-2.5713,-2.5704,-2.5694,-2.5802,-2.5802,-2.587,-2.5871,-2.5871]}]]